Location: Namasale
(1.5000°N, 32.6167°E)
Time: 00:22:16
(UTC+00:00)

ISS - Pass Details

Date: 10 December 2021
Orbit: 413 x 422 km, 51.6° (Epoch: 23 January)

Event Time Altitude Azimuth Distance (km) Brightness Sun altitude
Rises 17:09:04 0° 320° (NW) 2,348 0.3 -20.5°
Reaches altitude 10° 17:11:11 10° 317° (NW) 1,485 -0.8 -20.9°
Maximum altitude 17:14:29 64° 235° (SW) 463 -3.4 -21.7°
Enters shadow 17:14:43 61° 207° (SSW) 475 -3.4 -21.7°
